sat.trackr.live / text

‹ back to catalog

STARLINK-5018

NORAD 53929 · 2022-119AV

PAYLOAD ACTIVE UNKNOWN

§ Identity

Operator
Country
US
Launch date
2022-09-24
Launch site
AFETR
Launch vehicle
Mass (kg)
RCS (m²)

Purposes: comms

External: N2YO · Heavens-Above · Gunter

§ Orbital elements

Epoch: 2026-05-24T23:02:50.815968Z

Period
95.44 min
Inclination
53.2123°
Eccentricity
0.0001488
Mean motion
15.08837946 rev/d
Perigee alt
538.7 km
Apogee alt
540.8 km
Semi-major
6,917.9 km
B*
4.2363e-5
RAAN
332.1026°
Arg perigee
90.5058°
Mean anomaly
269.6105°
Rev number
20,333

§ Raw data

STARLINK-50181 53929U 22119AV  26144.96031037  .00000386  00000+0  42363-4 0  99972 53929  53.2123 332.1026 0001488  90.5058 269.6105 15.08837946203332

JSON: /api/v1/satellites/53929 · /tle

For live sub-satellite position, see the globe view (requires WebGL).

§ Visibility from observer

Set your observer location to see the next 7 days of passes ≥ 10°. The values pass through the URL so the page stays shareable.

No JS? Fill the form by hand. The geolocation button needs JavaScript.